Temp
77 81 86 82 71 71 63 64 70 67 67 70 71 72 71 68 69 64 67 69 69 70 73 74 71 72 72 72 73 73 73 73 73 74 74 74 74 75 75 75 74 75 76 77 77 78 78 77 76
81 79 83 79 69 65 67 69 66 71 69 69 68 67 67 68 65 64 66 67 68 70 72 73 69 70 71 71 71 71 71 71 72 72 72 72 72 73 73 73 73 73 74 76 77 77 76 76 75
80 80 78 74 69 66 67 68 72 68 68 68 66 66 67 66 65 68 68 67 69 69 71 70 68 69 69 70 70 70 69 70 70 70 70 70 70 70 70 70 70 71 72 74 74 75 74 74 74
81 80 77 69 65 67 68 72 72 66 65 67 68 66 64 66 67 69 68 68 68 67 70 68 67 68 68 68 68 68 68 68 68 68 68 69 68 67 67 68 69 69 69 70 70 71 72 72 72
82 79 70 66 65 67 69 73 72 67 70 68 66 67 63 64 67 68 67 68 67 66 67 68 65 65 66 66 66 66 66 66 66 65 65 66 66 65 65 66 67 67 67 67 68 69 69 69 70
76 76 66 64 65 67 70 72 71 71 68 65 64 64 65 66 64 66 68 67 67 65 63 64 61 62 63 64 64 64 64 64 63 63 62 62 63 63 62 63 64 65 65 65 66 66 67 68 68
72 71 66 64 64 64 68 72 69 71 69 67 66 65 64 62 66 66 67 66 66 65 63 63 63 60 59 60 60 61 61 61 60 60 59 59 59 59 59 60 61 62 62 63 63 64 65 65 64
75 73 63 64 65 64 68 69 68 70 69 65 69 68 67 65 65 65 65 65 65 64 64 63 62 62 61 61 57 57 58 58 57 57 56 56 58 58 57 57 58 59 60 60 61 62 62 62 62
70 68 64 64 62 67 67 67 65 64 65 63 66 64 63 68 64 62 61 62 62 61 62 62 62 61 61 60 56 56 55 55 56 57 56 59 61 60 60 55 54 56 56 57 59 59 59 59 62
71 66 66 69 70 68 68 68 68 65 64 63 63 64 60 64 61 60 60 61 62 61 60 62 62 61 60 62 59 59 59 59 58 57 58 59 59 57 57 56 54 54 53 56 57 58 59 61 65
67 67 68 68 69 68 67 65 68 66 64 71 69 70 60 61 60 61 62 64 63 63 62 61 61 60 59 59 60 60 60 59 58 56 56 56 58 58 58 57 57 57 55 59 59 59 61 59 60
65 67 67 67 66 64 64 66 63 66 73 71 73 71 63 60 60 61 62 63 62 60 60 59 60 58 58 59 59 59 59 58 58 56 54 55 56 55 55 55 55 55 56 55 56 57 57 57 58
65 67 65 67 64 65 62 64 66 65 72 71 64 63 62 62 62 63 64 63 61 59 59 59 59 58 58 58 58 58 57 57 56 56 54 54 54 53 53 53 53 53 54 53 54 54 55 56 57
67 64 66 65 65 64 61 64 60 70 69 68 61 63 63 63 63 63 62 60 59 60 58 59 58 58 58 58 57 57 57 56 56 55 53 51 52 51 51 51 51 52 51 51 51 51 52 53 55
63 61 64 63 64 63 61 60 59 72 61 64 61 63 63 63 64 62 62 60 60 59 59 57 57 57 57 56 56 56 55 55 55 55 52 51 50 50 49 49 50 50 49 49 51 51 52 52 54
61 60 60 62 60 60 61 60 71 72 62 64 66 64 61 61 62 63 63 62 61 60 57 57 57 56 56 55 55 55 54 54 55 55 54 50 49 48 48 48 48 48 48 48 49 49 48 49 50
59 61 57 59 62 58 59 62 68 62 61 63 68 66 62 61 61 62 63 61 60 60 58 56 56 55 54 54 54 53 51 53 55 54 54 50 48 47 47 47 47 46 46 47 47 46 46 45 47
61 57 59 57 60 56 56 58 66 69 60 64 69 69 65 61 61 62 61 60 60 58 58 56 55 55 54 53 52 52 52 52 53 52 51 49 49 46 46 46 45 45 44 46 45 44 45 44 46
60 57 59 64 57 56 58 57 62 67 66 62 65 68 66 62 65 64 60 58 56 56 55 55 53 54 53 51 50 49 50 51 50 50 49 48 47 45 44 45 45 45 44 43 42 42 41 42 44
56 56 57 61 53 52 56 53 58 62 63 65 67 68 68 64 62 61 58 55 53 53 53 53 53 53 52 52 50 51 50 50 50 49 48 47 46 45 44 43 43 44 43 42 42 40 39 41 43
55 55 58 53 52 51 48 51 54 60 60 63 63 66 68 64 60 58 53 53 53 52 52 52 52 52 51 49 48 46 46 47 46 48 48 47 45 44 43 42 42 42 42 41 40 40 38 36 40
52 57 54 50 48 49 50 45 58 62 61 60 67 69 64 61 58 57 53 53 53 53 52 51 51 50 49 48 46 46 47 48 49 47 47 45 44 43 42 41 41 41 41 40 40 40 38 37 35
55 50 50 48 47 42 50 43 55 49 52 59 65 69 64 63 58 57 53 53 53 51 50 50 50 48 47 45 47 46 45 46 47 44 42 43 43 42 41 40 40 40 40 40 39 38 38 37 35
49 49 46 43 45 38 51 48 53 53 56 61 64 68 61 57 57 58 56 53 52 51 49 50 49 48 46 46 47 46 45 44 43 42 41 42 41 41 41 39 39 39 39 38 38 38 36 36 35
49 49 45 42 39 41 46 41 51 57 60 61 66 70 60 58 56 55 52 50 50 48 47 48 48 47 47 46 46 45 44 43 41 41 40 39 39 40 40 39 38 38 38 37 37 36 35 35 34
47 51 44 35 39 44 39 38 54 60 64 64 58 59 55 54 54 53 52 51 49 46 47 47 47 47 47 46 44 44 43 42 41 40 39 38 38 38 38 37 37 36 36 35 35 34 34 34 33
45 44 49 42 29 32 49 56 56 53 54 54 53 55 57 56 55 53 51 50 50 47 47 47 47 47 46 45 44 42 41 39 39 38 38 37 37 36 35 35 34 34 34 34 33 32 32 32 32
45 47 40 42 33 34 46 48 52 53 53 55 53 55 61 58 56 53 51 50 49 49 48 48 48 46 45 44 43 41 39 38 38 36 35 35 35 34 33 33 33 32 32 32 32 31 31 30 30
39 42 42 41 38 37 36 46 59 57 56 54 56 60 61 58 57 55 52 50 49 49 48 47 47 46 43 42 40 38 37 36 35 34 34 33 33 32 31 31 30 30 30 30 29 28 28 27 27
45 47 47 41 37 40 41 42 55 58 58 56 56 55 58 57 58 57 52 49 47 47 47 45 46 43 42 40 38 36 35 34 33 33 32 32 30 31 29 29 28 28 27 27 26 25 26 25 24
MSLP
1016.42 1016.29 1015.92 1015.22 1014.57 1013.48 1013.35 1013.98 1014.60 1015.10 1015.85 1016.61 1016.99 1016.84 1016.71 1017.64 1017.97 1019.91 1021.54 1021.93 1022.10 1021.99 1021.91 1021.66 1021.70 1021.43 1021.11 1020.88 1020.67 1020.48 1020.27 1020.10 1020.08 1019.93 1019.75 1019.69 1019.54 1019.37 1019.32 1019.24 1019.13 1018.95 1018.77 1018.62 1018.47 1018.48 1018.31 1018.30 1018.22
1016.28 1016.27 1015.68 1014.64 1013.54 1012.58 1012.83 1013.75 1014.28 1014.97 1016.24 1017.14 1017.69 1017.90 1017.94 1018.15 1019.50 1020.50 1021.35 1022.21 1022.39 1022.28 1022.11 1022.00 1022.04 1021.80 1021.61 1021.31 1021.10 1021.03 1020.85 1020.67 1020.46 1020.26 1020.19 1020.09 1019.93 1019.88 1019.78 1019.66 1019.42 1019.16 1018.91 1018.74 1018.59 1018.45 1018.23 1018.22 1018.25
1016.28 1015.99 1014.97 1014.13 1013.28 1012.32 1012.61 1013.61 1014.14 1015.81 1016.87 1017.28 1017.82 1018.57 1018.52 1018.71 1020.10 1020.64 1021.84 1022.32 1022.40 1022.54 1022.42 1022.46 1022.41 1022.19 1021.99 1021.79 1021.62 1021.52 1021.39 1021.27 1021.14 1021.03 1020.88 1020.71 1020.46 1020.38 1020.29 1020.05 1019.90 1019.60 1019.28 1018.97 1018.75 1018.58 1018.43 1018.35 1018.16
1016.03 1015.68 1015.29 1013.95 1013.00 1013.10 1013.30 1013.75 1014.64 1016.11 1017.30 1017.69 1017.98 1018.26 1019.57 1020.28 1020.38 1021.04 1022.11 1022.41 1022.52 1022.84 1022.75 1022.91 1022.82 1022.61 1022.38 1022.19 1022.03 1021.90 1021.79 1021.70 1021.65 1021.58 1021.45 1021.30 1021.14 1021.13 1020.90 1020.64 1020.40 1020.16 1019.97 1019.67 1019.29 1018.94 1018.66 1018.40 1018.19
1015.97 1014.99 1013.97 1013.52 1013.28 1013.52 1014.05 1014.38 1015.08 1015.80 1016.47 1017.14 1018.09 1018.23 1019.27 1020.60 1021.37 1021.83 1022.22 1022.47 1022.66 1023.00 1023.28 1023.19 1023.12 1022.93 1022.78 1022.67 1022.49 1022.39 1022.31 1022.17 1022.08 1022.02 1021.85 1021.59 1021.52 1021.52 1021.41 1021.15 1020.88 1020.63 1020.31 1020.02 1019.78 1019.52 1019.25 1018.84 1018.33
1015.10 1014.82 1013.70 1013.15 1013.30 1013.82 1014.39 1014.88 1015.42 1015.81 1016.65 1017.63 1018.18 1018.49 1019.16 1020.54 1021.32 1021.83 1022.22 1022.55 1022.86 1023.12 1023.45 1023.57 1023.68 1023.55 1023.35 1023.14 1022.96 1022.79 1022.63 1022.53 1022.46 1022.43 1022.31 1022.10 1021.94 1021.80 1021.68 1021.47 1021.11 1020.86 1020.61 1020.38 1020.19 1019.94 1019.57 1019.14 1018.72
1014.74 1014.29 1013.59 1013.63 1013.63 1014.07 1014.50 1015.41 1015.62 1015.93 1016.69 1017.45 1018.21 1018.22 1019.48 1020.67 1021.17 1021.82 1022.22 1022.67 1022.94 1023.14 1023.40 1023.65 1023.75 1023.89 1023.67 1023.53 1023.27 1023.17 1023.08 1023.00 1022.95 1022.89 1022.76 1022.61 1022.50 1022.31 1022.21 1021.95 1021.53 1021.23 1020.97 1020.62 1020.29 1019.74 1019.28 1019.17 1019.09
1015.21 1014.41 1014.01 1013.85 1013.74 1014.02 1014.95 1015.64 1016.24 1016.37 1016.67 1018.19 1018.30 1017.76 1018.38 1019.49 1021.08 1021.80 1022.34 1022.62 1022.86 1023.18 1023.31 1023.47 1023.55 1023.55 1023.61 1023.58 1023.66 1023.57 1023.52 1023.48 1023.39 1023.24 1023.10 1022.96 1022.65 1022.58 1022.55 1022.29 1022.12 1021.85 1021.52 1021.06 1020.63 1020.11 1019.65 1019.50 1019.09
1015.81 1014.64 1013.70 1013.76 1014.12 1014.10 1015.25 1015.60 1016.67 1017.36 1017.40 1017.86 1018.08 1018.30 1019.08 1019.56 1021.09 1021.71 1022.07 1022.38 1022.67 1022.98 1023.11 1023.19 1023.25 1023.39 1023.48 1023.67 1023.97 1023.82 1023.80 1023.67 1023.47 1023.27 1023.25 1022.70 1022.56 1022.52 1022.37 1022.64 1022.54 1022.05 1021.67 1021.22 1020.77 1020.35 1020.06 1019.74 1019.00
1015.33 1014.77 1014.02 1014.23 1014.30 1014.48 1015.13 1015.53 1015.96 1016.71 1016.82 1017.08 1017.60 1018.37 1019.49 1019.88 1020.60 1020.86 1021.07 1021.36 1021.83 1022.26 1022.76 1022.92 1023.03 1023.25 1023.43 1023.58 1023.74 1023.70 1023.62 1023.51 1023.47 1023.26 1023.06 1022.84 1022.82 1022.95 1022.79 1022.67 1022.52 1022.13 1021.98 1021.47 1020.96 1020.43 1020.25 1019.50 1019.03
1015.36 1014.71 1014.69 1014.73 1015.03 1015.29 1015.35 1015.67 1015.89 1015.85 1015.48 1014.99 1015.46 1016.64 1018.62 1019.43 1020.00 1020.18 1020.43 1020.68 1021.15 1021.81 1022.41 1022.78 1023.03 1023.18 1023.32 1023.50 1023.52 1023.50 1023.53 1023.42 1023.38 1023.43 1023.42 1023.34 1023.07 1023.00 1022.86 1022.63 1022.38 1022.20 1021.94 1021.29 1021.23 1020.79 1020.30 1020.26 1019.82
1015.18 1014.89 1015.02 1015.05 1015.41 1015.65 1015.64 1015.71 1015.49 1015.19 1013.85 1014.64 1015.06 1015.91 1017.54 1018.29 1018.76 1019.09 1019.57 1020.01 1020.62 1021.38 1022.04 1022.66 1022.92 1023.15 1023.33 1023.37 1023.34 1023.34 1023.24 1023.30 1023.32 1023.58 1023.68 1023.42 1023.21 1023.16 1023.05 1022.91 1022.75 1022.45 1022.14 1021.78 1021.28 1020.79 1020.56 1020.14 1019.71
1015.15 1014.82 1015.04 1015.13 1015.48 1015.53 1015.79 1015.44 1015.09 1014.16 1013.94 1014.59 1015.61 1016.20 1016.74 1017.30 1017.74 1018.38 1019.02 1019.84 1020.46 1021.05 1021.84 1022.38 1022.77 1022.81 1022.96 1023.00 1023.12 1023.22 1023.26 1023.41 1023.51 1023.50 1023.70 1023.56 1023.41 1023.42 1023.30 1023.17 1023.06 1022.95 1022.72 1022.34 1021.73 1021.19 1020.64 1019.96 1019.47
1015.02 1015.11 1014.93 1015.08 1015.25 1015.38 1015.41 1014.93 1015.35 1012.92 1013.38 1014.07 1015.08 1015.44 1015.96 1016.29 1016.80 1017.74 1018.28 1018.85 1019.78 1020.57 1021.30 1021.91 1022.24 1022.51 1022.71 1022.72 1022.92 1023.03 1023.15 1023.34 1023.38 1023.43 1023.55 1023.75 1023.73 1023.65 1023.58 1023.46 1023.27 1023.03 1023.00 1022.60 1022.15 1021.59 1020.99 1020.38 1019.69
1015.46 1015.09 1014.66 1014.66 1015.02 1015.18 1015.36 1014.49 1013.31 1012.16 1013.67 1013.79 1014.27 1014.66 1015.21 1015.60 1016.39 1016.42 1017.18 1017.96 1018.87 1019.72 1020.59 1021.24 1021.74 1022.19 1022.42 1022.55 1022.66 1022.89 1023.09 1023.22 1023.23 1023.36 1023.72 1023.83 1023.85 1023.76 1023.72 1023.49 1023.32 1023.33 1023.27 1022.78 1022.10 1021.64 1021.14 1020.49 1019.86
1015.28 1015.04 1014.06 1014.07 1014.85 1015.25 1015.31 1012.15 1011.54 1011.85 1012.88 1012.82 1013.13 1013.65 1014.29 1014.71 1015.18 1015.95 1016.79 1017.68 1018.47 1019.26 1020.09 1020.81 1021.29 1021.72 1022.00 1022.09 1022.31 1022.65 1022.88 1022.89 1022.99 1023.30 1023.55 1023.83 1023.97 1023.98 1023.81 1023.64 1023.53 1023.68 1023.27 1022.79 1022.27 1021.81 1021.27 1020.64 1019.87
1014.66 1013.52 1013.57 1013.71 1014.30 1014.86 1014.82 1012.04 1011.37 1012.08 1012.41 1011.93 1011.87 1012.37 1012.96 1013.71 1014.48 1015.00 1015.79 1016.84 1017.71 1018.50 1019.36 1020.23 1020.93 1021.36 1021.73 1022.12 1022.44 1022.79 1022.99 1022.79 1022.82 1023.08 1023.22 1023.54 1023.76 1023.87 1023.83 1023.73 1023.68 1023.87 1023.26 1022.82 1022.56 1022.12 1021.62 1020.89 1019.99
1012.80 1013.08 1012.85 1013.16 1013.97 1014.59 1014.16 1012.22 1010.90 1011.28 1011.89 1010.86 1010.41 1010.88 1011.49 1012.14 1012.44 1013.74 1015.00 1016.18 1017.13 1017.98 1018.66 1019.41 1020.08 1020.66 1021.35 1022.03 1022.50 1022.60 1022.59 1022.58 1022.81 1022.80 1022.96 1023.40 1023.59 1023.76 1023.75 1023.56 1023.42 1023.65 1023.11 1022.63 1022.58 1022.16 1021.65 1021.10 1020.04
1013.05 1012.94 1012.53 1012.32 1014.00 1014.26 1013.09 1012.23 1010.74 1010.43 1010.43 1009.45 1008.95 1009.16 1009.60 1010.40 1011.57 1012.78 1014.27 1015.54 1016.65 1017.54 1018.37 1019.02 1019.74 1020.35 1021.05 1021.64 1021.98 1022.16 1021.85 1022.12 1022.29 1022.37 1022.69 1023.01 1023.21 1023.39 1023.33 1023.27 1023.10 1022.91 1022.47 1022.46 1022.34 1022.10 1021.53 1020.74 1020.02
1013.60 1013.26 1012.37 1012.79 1013.97 1014.28 1012.93 1011.62 1010.82 1010.30 1008.97 1008.24 1007.63 1007.21 1008.03 1009.42 1010.81 1012.05 1013.50 1015.08 1016.04 1016.84 1017.78 1018.57 1019.21 1019.84 1020.49 1020.93 1021.33 1021.47 1021.76 1022.03 1022.17 1022.47 1022.68 1022.76 1022.86 1022.97 1022.99 1022.99 1022.78 1022.59 1022.34 1022.30 1022.02 1021.70 1021.22 1020.78 1020.44
1013.76 1013.37 1012.81 1013.61 1013.86 1013.85 1013.38 1010.72 1009.71 1008.59 1008.45 1007.39 1006.43 1006.21 1007.04 1008.07 1009.59 1011.26 1012.91 1014.11 1015.35 1015.96 1016.76 1017.60 1018.47 1019.12 1019.83 1020.47 1021.02 1021.55 1022.03 1022.14 1022.11 1022.06 1022.08 1022.26 1022.63 1022.82 1022.96 1022.95 1022.70 1022.26 1022.06 1021.74 1021.72 1021.36 1021.15 1020.73 1020.37
1014.02 1013.50 1013.78 1014.12 1014.58 1013.18 1013.28 1007.95 1008.17 1007.58 1007.03 1006.92 1005.41 1005.36 1006.11 1007.29 1008.88 1010.46 1011.99 1012.98 1013.78 1014.62 1016.10 1017.17 1017.92 1018.68 1019.29 1019.78 1020.20 1020.51 1020.79 1020.90 1021.14 1021.64 1021.86 1022.19 1022.42 1022.52 1022.69 1022.62 1022.33 1021.92 1021.72 1021.19 1020.78 1020.73 1020.86 1020.88 1020.25
1014.13 1014.40 1014.41 1014.47 1014.25 1013.76 1012.30 1010.75 1006.41 1007.10 1006.60 1005.59 1004.38 1004.32 1005.37 1006.55 1008.15 1009.26 1010.70 1011.89 1013.06 1014.48 1015.45 1016.44 1017.35 1018.27 1018.91 1019.46 1019.75 1020.19 1020.54 1020.79 1021.15 1021.54 1021.72 1021.80 1021.85 1022.07 1022.37 1022.14 1021.50 1021.03 1020.83 1020.60 1020.43 1020.48 1020.42 1020.18 1020.04
1015.22 1015.00 1014.96 1014.91 1014.13 1011.71 1009.80 1008.97 1005.58 1005.74 1005.23 1004.70 1004.05 1003.86 1005.00 1006.45 1007.64 1008.70 1010.04 1011.53 1012.72 1013.96 1014.97 1015.73 1016.48 1017.26 1018.05 1018.70 1019.29 1019.69 1020.01 1020.42 1020.94 1021.37 1021.67 1021.78 1021.85 1021.52 1021.39 1021.28 1021.10 1020.83 1020.56 1020.22 1020.02 1020.01 1019.94 1019.69 1019.40
1015.37 1014.95 1014.18 1013.25 1012.65 1008.37 1008.45 1007.65 1004.77 1004.96 1004.56 1004.28 1003.63 1003.87 1005.26 1006.49 1007.63 1008.64 1009.71 1010.90 1011.90 1012.97 1014.00 1014.95 1015.60 1016.19 1017.10 1017.94 1018.63 1019.28 1019.75 1020.24 1020.69 1021.00 1020.96 1020.90 1021.05 1021.12 1020.91 1020.74 1020.49 1020.35 1020.14 1019.99 1019.86 1019.76 1019.51 1019.13 1018.74
1014.73 1014.24 1013.65 1011.74 1010.94 1007.16 1008.04 1004.28 1002.76 1003.55 1003.48 1003.25 1004.08 1004.51 1005.44 1006.50 1007.46 1008.34 1009.42 1010.39 1011.16 1012.11 1012.95 1013.69 1014.19 1015.09 1016.12 1017.06 1017.97 1018.76 1019.41 1019.92 1020.29 1020.52 1020.48 1020.56 1020.67 1020.62 1020.67 1020.65 1020.36 1019.99 1019.68 1019.58 1019.53 1019.30 1018.90 1018.42 1018.10
1014.97 1014.49 1013.43 1012.47 1011.81 1009.14 1004.49 1001.94 1002.41 1002.85 1003.04 1003.35 1003.69 1004.50 1004.44 1005.53 1006.72 1007.84 1008.67 1009.59 1010.17 1010.95 1011.38 1012.09 1013.18 1014.15 1015.26 1016.38 1017.43 1018.35 1019.07 1019.61 1019.83 1020.10 1020.17 1020.12 1020.14 1020.40 1020.64 1020.22 1019.79 1019.68 1019.47 1019.30 1019.15 1018.75 1018.23 1017.76 1017.34
1014.52 1014.10 1013.85 1013.13 1011.51 1008.50 1001.35 1000.98 1000.77 1001.88 1001.70 1002.71 1003.38 1003.69 1003.58 1004.76 1005.63 1006.75 1007.78 1008.85 1009.54 1009.89 1010.54 1011.39 1012.11 1013.10 1014.47 1015.76 1016.80 1017.79 1018.57 1019.08 1019.42 1019.59 1019.60 1019.72 1019.83 1019.87 1019.92 1019.82 1019.66 1019.41 1019.14 1019.02 1018.83 1018.20 1017.54 1016.96 1016.42
1014.49 1013.66 1013.42 1012.80 1011.14 1009.01 1005.27 999.34 999.70 1000.22 1000.77 1001.92 1002.32 1002.82 1003.37 1004.15 1004.78 1005.76 1006.73 1007.79 1008.57 1009.40 1009.94 1010.50 1011.46 1012.61 1013.78 1015.08 1016.19 1017.17 1018.00 1018.76 1019.11 1019.22 1019.28 1019.25 1019.33 1019.55 1019.58 1019.47 1019.29 1018.89 1018.41 1018.13 1017.81 1017.25 1016.84 1016.26 1015.47
1011.97 1011.37 1011.15 1010.69 1009.55 1007.99 1006.77 998.36 999.30 999.40 1000.38 1001.34 1002.08 1002.53 1003.15 1003.71 1004.10 1004.91 1005.85 1006.88 1007.65 1008.14 1008.88 1009.98 1011.10 1012.16 1013.07 1014.44 1015.78 1016.70 1017.54 1018.37 1018.77 1018.81 1018.82 1018.97 1019.10 1019.07 1018.94 1018.73 1018.60 1018.47 1018.23 1017.77 1017.29 1016.48 1015.72 1015.13 1014.53
Wind_Speed
4 2 2 4 5 4 4 5 0 7 7 3 2 6 8 4 2 1 5 4 3 4 5 9 11 11 11 12 13 14 15 16 15 13 15 14 14 15 16 15 15 14 13 12 13 13 11 9 9
5 2 3 1 5 4 4 5 9 8 5 9 6 4 4 2 2 7 7 4 4 5 5 8 10 11 11 13 13 13 14 14 15 14 13 14 14 14 13 13 13 13 13 13 13 13 15 14 12
3 1 3 3 3 5 1 8 7 6 12 5 5 2 1 2 4 8 6 7 6 6 4 9 9 10 12 12 13 14 14 14 13 13 13 12 13 12 11 12 12 12 12 11 12 13 14 15 14
3 3 3 6 5 2 2 8 8 12 5 4 1 4 2 2 5 5 10 8 8 7 6 10 10 11 12 12 13 14 15 15 15 14 14 14 14 14 14 14 13 13 13 14 14 14 13 13 13
1 3 4 4 4 2 3 4 11 14 8 7 6 2 2 4 7 11 10 8 8 8 7 8 10 11 11 12 13 13 14 15 15 15 15 15 14 15 15 15 15 15 15 16 15 15 15 15 13
3 3 4 6 4 3 3 7 10 12 5 5 6 3 1 7 13 11 10 9 8 8 6 6 9 11 11 11 12 13 13 14 14 15 15 15 15 15 15 15 14 14 13 14 15 15 15 16 16
3 3 2 2 3 3 4 8 10 12 8 6 1 5 3 12 13 12 10 9 8 7 6 6 6 8 11 11 12 12 12 13 13 13 13 13 13 13 14 14 16 15 15 14 13 13 14 15 16
1 2 3 3 3 2 7 9 2 11 10 3 4 7 4 14 16 13 11 9 8 7 7 6 6 6 6 7 10 11 12 12 12 13 12 10 10 12 14 15 16 16 15 16 16 16 15 16 13
1 4 4 4 5 3 8 9 4 1 4 5 8 4 3 15 18 14 13 11 10 7 7 7 6 6 6 6 6 7 9 10 10 9 12 8 7 10 10 11 14 15 16 15 16 15 15 14 11
3 3 3 1 3 3 7 9 8 7 8 9 8 9 5 19 19 18 18 15 14 12 9 7 7 6 6 4 5 5 6 6 7 8 9 7 8 8 9 8 12 12 14 12 15 16 15 12 8
3 4 0 2 5 3 4 6 6 8 12 14 15 14 15 21 20 20 18 16 15 11 8 8 7 6 5 4 3 3 3 3 4 8 8 6 5 5 5 5 6 7 9 7 9 8 7 11 9
4 4 3 1 4 4 4 4 6 14 16 1 9 6 19 22 23 22 20 18 16 14 11 8 7 7 6 4 4 4 3 3 4 5 7 5 4 5 6 5 7 7 7 9 9 7 9 9 10
5 4 5 4 5 6 3 9 9 15 17 11 4 10 18 20 22 20 18 17 16 15 12 11 9 8 7 6 4 4 4 3 4 4 5 5 5 6 6 6 6 7 7 8 8 8 9 10 10
3 4 5 5 5 5 7 4 3 6 5 14 12 15 17 21 23 19 20 20 18 15 14 12 10 8 7 6 5 4 4 4 3 3 4 6 5 5 5 5 6 6 7 8 8 9 10 10 11
1 6 6 10 6 4 4 10 14 17 7 10 14 15 17 19 19 25 22 21 20 16 16 15 12 10 8 7 5 4 3 3 2 2 3 4 4 5 6 6 6 7 8 10 8 9 9 9 10
3 3 5 6 8 2 5 15 13 5 10 15 15 15 16 20 23 21 20 19 19 17 16 14 11 11 9 7 5 4 4 3 2 1 0 1 3 5 5 5 6 7 8 8 8 9 9 10 10
5 10 9 4 11 5 11 15 4 3 8 15 16 16 17 17 21 22 22 21 20 19 18 16 14 12 10 7 5 5 5 3 1 1 1 3 5 5 5 5 5 7 6 7 7 9 9 10 11
11 9 8 10 6 8 10 23 23 15 12 22 22 19 18 19 24 22 22 21 19 19 18 17 14 14 12 7 5 4 4 3 2 3 3 3 3 4 5 5 6 7 6 6 7 9 8 10 11
7 8 17 13 4 6 18 22 25 21 19 24 24 21 20 22 18 19 21 21 20 19 18 18 16 14 11 8 6 4 4 4 4 4 5 5 3 5 5 5 6 6 6 8 8 9 10 10 10
9 13 22 13 3 9 14 22 22 22 26 24 25 24 20 17 16 18 20 20 21 20 19 18 17 16 12 8 6 3 3 3 3 4 5 5 5 5 6 7 7 7 6 8 8 8 8 8 6
12 18 16 11 4 9 10 17 10 8 15 20 23 24 18 17 17 17 19 22 21 22 22 19 18 16 14 11 6 4 2 3 4 5 3 3 5 6 7 8 8 7 7 7 8 8 10 8 8
15 8 11 8 5 12 3 20 12 14 14 12 23 13 14 15 14 15 19 22 24 22 18 19 18 16 13 14 10 10 7 6 4 3 4 5 7 8 7 8 8 8 7 8 7 6 8 9 10
6 2 4 3 8 7 12 13 9 2 6 18 17 16 12 13 14 17 19 20 19 19 18 19 18 15 13 13 12 9 9 6 4 4 7 7 7 7 8 9 9 8 7 9 10 10 10 8 10
8 3 2 2 4 11 18 19 3 6 8 9 14 13 9 10 12 13 14 15 17 18 18 18 19 18 15 15 14 14 12 9 6 6 5 5 5 6 9 9 8 9 9 10 9 11 13 12 12
4 4 6 8 7 16 2 9 14 14 12 14 18 14 5 8 10 11 14 16 17 20 20 19 21 21 18 17 15 14 12 10 9 7 5 6 6 7 8 9 9 8 9 11 11 12 14 14 13
11 7 7 16 15 25 6 14 10 11 16 20 7 10 4 7 8 10 13 15 18 19 22 22 22 21 20 18 16 12 11 6 6 7 6 6 7 7 9 9 10 11 12 12 13 12 12 14 14
9 9 2 7 3 11 12 20 8 10 14 8 15 11 15 12 10 12 13 16 17 20 22 23 22 20 20 18 13 12 9 9 7 7 7 7 7 7 10 11 11 11 12 13 14 12 15 15 16
4 3 5 4 8 21 27 31 20 13 16 12 11 13 15 9 12 12 13 15 16 18 19 22 22 21 20 17 13 10 10 9 7 7 8 8 8 10 10 10 11 12 13 14 15 14 15 16 14
7 7 5 3 4 11 22 13 4 5 5 9 13 13 9 9 12 12 13 14 15 15 18 19 20 21 19 16 13 11 9 8 8 7 6 8 9 9 9 10 11 13 14 14 15 16 18 18 19
2 10 15 10 9 13 10 36 3 3 5 4 3 5 7 9 12 11 12 14 16 17 18 19 18 18 17 15 13 11 9 8 7 6 7 7 8 8 9 10 12 13 14 15 16 17 16 18 20
Wind_Direction
138 183 266 235 229 227 154 176 183 163 176 116 134 207 211 356 216 354 119 64 75 58 31 52 46 52 47 49 51 54 58 57 52 50 48 43 37 35 31 29 24 16 3 350 341 338 338 350 347
135 167 225 271 251 240 141 162 196 169 122 132 136 145 197 177 116 126 157 102 93 69 50 59 47 57 60 64 64 61 55 52 49 43 43 41 42 41 36 28 20 16 6 359 353 347 346 349 346
139 263 253 262 267 261 234 187 171 134 142 162 149 279 158 129 139 136 102 125 127 98 80 69 62 63 62 64 67 64 63 62 61 60 56 49 50 43 38 37 28 26 17 6 1 353 354 353 346
204 169 155 247 242 237 290 178 157 144 182 220 233 199 188 25 147 136 130 131 126 98 78 72 66 66 65 63 64 61 55 54 52 50 50 48 49 40 34 28 26 21 14 10 4 0 354 346 342
215 224 223 236 228 253 220 187 173 171 165 177 186 169 215 161 124 134 137 133 123 106 86 84 70 68 66 65 63 61 58 54 50 46 45 43 43 38 33 26 21 14 10 5 359 350 348 347 345
204 284 235 247 220 219 207 185 183 192 176 141 203 194 148 132 155 151 149 131 120 116 108 98 72 70 68 68 65 60 59 56 51 46 44 40 39 35 30 24 21 16 10 4 357 351 347 344 338
261 231 281 267 269 241 196 165 202 203 204 209 20 230 101 172 164 159 154 144 138 128 125 113 106 92 78 71 71 69 70 65 60 52 46 42 39 35 28 21 15 9 3 0 354 351 354 350 347
227 246 200 212 226 245 148 167 245 207 214 68 202 231 203 186 165 159 160 159 156 149 139 129 131 120 105 91 79 79 74 69 62 51 44 39 42 28 25 16 12 6 2 360 357 351 351 342 335
259 240 235 222 195 146 156 194 154 120 199 205 202 250 71 153 162 166 171 174 171 168 163 153 142 133 123 111 90 88 73 64 51 41 37 39 32 21 17 14 1 3 0 355 356 352 346 338 328
246 259 258 223 209 224 183 211 178 194 197 223 223 212 162 164 177 183 188 188 188 178 171 164 155 140 135 118 107 81 74 62 52 40 33 29 25 21 6 5 1 0 356 346 350 349 337 339 337
160 261 190 230 235 231 218 217 191 226 228 228 217 205 182 181 190 198 202 200 194 182 173 174 160 143 140 129 113 96 87 79 63 48 35 31 24 14 12 359 358 352 358 355 344 339 345 337 328
223 228 228 197 190 187 216 146 216 224 243 297 240 205 181 190 197 202 203 198 189 185 180 169 162 159 147 149 139 131 111 86 67 57 36 25 20 12 8 4 354 350 348 344 344 339 329 326 323
225 202 211 230 206 226 164 232 253 243 244 224 209 189 193 199 203 205 204 200 193 190 179 177 174 169 163 163 152 132 111 94 81 68 48 23 20 11 359 354 349 343 341 339 333 332 328 324 319
168 241 253 250 226 222 237 230 216 242 244 225 214 212 208 208 204 200 201 198 195 191 185 176 180 176 169 161 147 131 122 110 83 61 40 30 10 4 352 342 339 337 338 336 329 332 328 324 320
353 283 251 222 216 235 208 258 232 247 188 219 219 225 219 217 206 210 203 200 191 190 182 183 178 176 175 161 143 138 118 123 117 84 55 24 2 348 344 341 339 338 330 326 329 329 322 317 317
243 257 250 144 174 170 213 277 238 209 205 236 232 226 220 219 215 215 208 204 196 191 187 182 179 180 176 163 158 160 164 158 151 119 224 306 344 349 340 336 333 334 325 329 330 327 324 321 316
214 270 227 270 202 147 213 277 248 181 229 254 248 231 226 225 217 216 208 203 195 192 186 185 186 184 178 172 172 183 185 195 179 222 279 342 336 342 327 323 321 317 316 319 322 322 320 316 312
269 246 244 252 177 216 217 255 271 258 243 260 263 253 239 227 220 212 205 202 195 193 189 186 185 184 180 175 184 192 198 206 229 232 243 251 286 308 312 312 311 302 299 304 317 312 316 307 311
271 261 266 267 192 237 249 256 271 282 273 261 266 258 247 236 230 211 203 198 194 193 190 192 186 187 181 184 188 206 211 196 226 221 243 246 287 302 315 304 295 291 300 310 308 312 316 320 330
236 259 263 283 192 215 273 269 272 265 266 266 268 264 255 244 230 210 200 198 197 191 193 193 193 188 191 188 189 188 186 215 257 261 255 265 299 308 300 291 287 291 301 300 306 318 317 315 340
233 238 258 261 316 223 282 268 243 257 254 272 262 258 257 235 225 207 201 202 198 196 195 195 193 190 190 187 170 163 193 241 243 235 253 292 295 287 277 279 283 295 294 298 307 316 316 309 310
243 233 248 269 284 274 356 288 276 270 263 248 270 253 239 224 217 202 201 203 203 200 192 193 192 189 189 183 185 195 207 223 224 265 278 276 272 280 283 290 294 300 297 291 297 299 294 294 295
245 109 179 199 250 306 246 268 269 128 250 259 262 266 227 225 205 198 201 205 204 195 192 190 189 189 186 186 196 198 213 230 243 258 275 279 295 305 303 288 288 284 284 285 289 291 288 283 281
134 121 158 161 251 250 254 232 244 186 211 244 259 265 208 194 200 202 195 198 200 194 193 193 191 191 188 190 196 203 209 213 225 234 257 284 296 276 263 268 278 278 279 282 287 289 284 279 275
195 183 284 251 233 266 121 254 263 276 235 235 249 265 161 181 187 191 190 193 192 194 192 195 193 195 189 193 196 202 210 214 230 241 242 254 262 267 271 272 278 280 285 288 287 283 277 275 274
186 216 202 273 282 289 107 249 273 228 245 251 280 261 204 207 207 205 200 196 195 193 194 196 195 195 192 192 194 197 201 208 219 228 238 253 256 269 278 277 279 280 285 287 285 281 276 276 275
153 198 332 286 100 285 247 256 220 201 238 241 251 258 251 226 212 211 203 205 197 197 199 198 195 193 193 191 190 189 192 204 218 231 239 250 256 265 276 276 280 289 286 284 283 277 276 274 273
223 112 138 197 270 268 280 290 283 229 237 233 246 239 252 218 211 211 206 206 207 206 200 200 197 193 188 186 183 183 189 201 218 228 236 249 264 264 270 282 289 291 290 287 282 280 277 275 273
173 200 201 278 227 268 284 267 149 161 149 201 224 236 253 242 228 212 209 208 210 208 202 199 195 190 181 178 174 178 186 200 216 233 246 254 267 275 285 297 295 288 285 282 279 278 282 280 279
319 234 205 223 220 236 270 274 115 245 206 232 242 264 258 236 217 212 206 205 208 205 200 200 191 185 175 168 171 178 182 198 217 233 246 260 276 288 295 292 288 288 288 285 283 284 283 283 284